Find Rassvet-3 No. 14

NORAD ID: 68373 Int'l Des: 2026-061 Owner: B1440 Country: RU Constellation: Rassvet operational
LEOCIRCULARPOLAR

Current View

Loading 3D Globe...

About Rassvet-3 No. 14

Rassvet-3 No. 14 (NORAD 68373) is a Rassvet constellation satellite launched Mar 23, 2026 by B1440 of RU. It operates in LEO, CIRCULAR, POLAR orbit with a mass of 370.00 kg.

About Rassvet-3 No. 14

Description loading...

Upcoming Passes

Passes for default location (London). Set your location on the main map for personalized predictions.

Altitude History

Loading altitude history...

Two-Line Element Set

1 68373U 26061P 26175.26604268 .00031038 00000-0 22564-3 0 9994
2 68373 82.2933 4.3416 0008986 99.1379 261.0901 15.73129566 14675
Epoch: Jun 24, 2026 • Age: 17 hours

Current Status

Altitude 357.3 km
Velocity 7.71 km/s
Sub-Earth Point 81.95°N, 155.13°W
Launch Date Mar 23, 2026
Age 0.2 years
Type other

Technical Details

Classification Payload
Mass 370.00 kg
Dry Mass 370.00 kg
Total Mass 370.00 kg
Length 4.00 m
Diameter 1.00 m
Span 10.00 m
Shape Box+1 pan
Manufacturer B1440
Bus Type Rassvet-2
Phase Status In Orbit
Owner/State B1440/RU

Most Searched